Time,TemperatureF,DewpointF,PressureIn,WindDirection,WindDirectionDegrees,WindSpeedMPH,WindSpeedGustMPH,Humidity,HourlyPrecipIn,Conditions,Clouds,dailyrainin,SolarRadiationWatts/m^2,SoftwareType,DateUTC
2013-04-08 00:03:00,56.0,47.0,-100.00,ESE,115,0.0,0.0,73,0.00,,,0.00,0.000000,,2013-04-08 04:03:00,
2013-04-08 00:13:00,56.0,47.0,-100.00,ESE,115,0.0,0.0,73,0.00,,,0.00,0.000000,,2013-04-08 04:13:00,
2013-04-08 00:45:00,54.0,46.0,-100.00,SSW,200,0.0,0.0,74,0.00,,,0.00,0.000000,,2013-04-08 04:45:00,
2013-04-08 00:53:00,54.0,46.0,-100.00,SSW,200,0.0,0.0,74,0.00,,,0.00,0.000000,,2013-04-08 04:53:00,
2013-04-08 01:03:00,54.0,46.0,-100.00,SSW,200,0.0,0.0,74,0.00,,,0.00,0.000000,,2013-04-08 05:03:00,
2013-04-08 01:12:00,54.0,46.0,-100.00,SSW,200,0.0,0.0,74,0.00,,,0.00,0.000000,,2013-04-08 05:12:00,
2013-04-08 01:22:00,54.0,46.0,-100.00,SSW,200,0.0,0.0,74,0.00,,,0.00,0.000000,,2013-04-08 05:22:00,
2013-04-08 01:42:00,53.0,46.0,-100.00,NW,318,0.0,0.0,78,0.00,,,0.00,0.000000,,2013-04-08 05:42:00,
2013-04-08 01:53:00,53.0,46.0,-100.00,NW,318,0.0,0.0,78,0.00,,,0.00,0.000000,,2013-04-08 05:53:00,
2013-04-08 02:02:00,53.0,46.0,-100.00,NW,318,0.0,0.0,78,0.00,,,0.00,0.000000,,2013-04-08 06:02:00,
2013-04-08 02:12:00,53.0,46.0,-100.00,NW,318,0.0,0.0,78,0.00,,,0.00,0.000000,,2013-04-08 06:12:00,
2013-04-08 02:22:00,53.0,46.0,-100.00,NW,318,0.0,0.0,78,0.00,,,0.00,0.000000,,2013-04-08 06:22:00,
2013-04-08 02:43:00,52.0,45.0,-100.00,NNW,333,0.0,0.0,76,0.00,,,0.00,0.000000,,2013-04-08 06:43:00,
2013-04-08 02:52:00,52.0,45.0,-100.00,NNW,333,0.0,0.0,76,0.00,,,0.00,0.000000,,2013-04-08 06:52:00,
2013-04-08 03:02:00,52.0,45.0,-100.00,NNW,333,0.0,0.0,76,0.00,,,0.00,0.000000,,2013-04-08 07:02:00,
2013-04-08 03:12:00,52.0,45.0,-100.00,NNW,333,0.0,0.0,76,0.00,,,0.00,0.000000,,2013-04-08 07:12:00,
2013-04-08 03:22:00,52.0,45.0,-100.00,NNW,333,0.0,0.0,76,0.00,,,0.00,0.000000,,2013-04-08 07:22:00,
2013-04-08 03:42:00,52.0,45.0,-100.00,ESE,102,0.0,0.0,76,0.00,,,0.00,0.000000,,2013-04-08 07:42:00,
2013-04-08 03:53:00,52.0,45.0,-100.00,ESE,102,0.0,0.0,76,0.00,,,0.00,0.000000,,2013-04-08 07:53:00,
2013-04-08 04:02:00,52.0,45.0,-100.00,ESE,102,0.0,0.0,76,0.00,,,0.00,0.000000,,2013-04-08 08:02:00,
2013-04-08 04:12:00,52.0,45.0,-100.00,ESE,102,0.0,0.0,76,0.00,,,0.00,0.000000,,2013-04-08 08:12:00,
2013-04-08 04:22:00,52.0,45.0,-100.00,ESE,102,0.0,0.0,76,0.00,,,0.00,0.000000,,2013-04-08 08:22:00,
2013-04-08 04:43:00,51.0,44.0,-100.00,NNW,334,0.0,0.0,77,0.00,,,0.00,0.000000,,2013-04-08 08:43:00,
2013-04-08 04:52:00,51.0,44.0,-100.00,NNW,334,0.0,0.0,77,0.00,,,0.00,0.000000,,2013-04-08 08:52:00,
2013-04-08 05:03:00,51.0,44.0,-100.00,NNW,334,0.0,0.0,77,0.00,,,0.00,0.000000,,2013-04-08 09:03:00,
2013-04-08 05:12:00,51.0,44.0,-100.00,NNW,334,0.0,0.0,77,0.00,,,0.00,0.000000,,2013-04-08 09:12:00,
2013-04-08 05:22:00,51.0,44.0,-100.00,NNW,334,0.0,0.0,77,0.00,,,0.00,0.000000,,2013-04-08 09:22:00,
2013-04-08 05:23:00,49.0,43.0,-100.00,ESE,110,0.0,0.0,81,0.00,,,0.00,0.000000,,2013-04-08 09:23:00,
2013-04-08 05:43:00,49.0,43.0,-100.00,ESE,110,0.0,0.0,81,0.00,,,0.00,0.000000,,2013-04-08 09:43:00,
2013-04-08 05:53:00,49.0,43.0,-100.00,ESE,110,0.0,0.0,81,0.00,,,0.00,0.000000,,2013-04-08 09:53:00,
2013-04-08 06:03:00,49.0,43.0,-100.00,ESE,110,0.0,0.0,81,0.00,,,0.00,0.000000,,2013-04-08 10:03:00,
2013-04-08 06:13:00,49.0,43.0,-100.00,ESE,110,0.0,0.0,81,0.00,,,0.00,0.000000,,2013-04-08 10:13:00,
2013-04-08 06:43:00,46.0,44.0,-100.00,East,101,0.0,0.0,92,0.00,,,0.00,0.000000,,2013-04-08 10:43:00,
2013-04-08 06:53:00,46.0,44.0,-100.00,East,101,0.0,0.0,92,0.00,,,0.00,0.000000,,2013-04-08 10:53:00,
2013-04-08 07:03:00,46.0,44.0,-100.00,East,101,0.0,0.0,92,0.00,,,0.00,0.000000,,2013-04-08 11:03:00,
2013-04-08 07:12:00,46.0,44.0,-100.00,East,101,0.0,0.0,92,0.00,,,0.00,0.000000,,2013-04-08 11:12:00,
2013-04-08 07:22:00,46.0,44.0,-100.00,East,101,0.0,0.0,92,0.00,,,0.00,0.000000,,2013-04-08 11:22:00,
2013-04-08 07:23:00,45.0,45.0,-100.00,East,94,0.0,0.0,100,0.00,,,0.00,3.000000,,2013-04-08 11:23:00,
2013-04-08 07:43:00,45.0,45.0,-100.00,East,94,0.0,0.0,100,0.00,,,0.00,3.000000,,2013-04-08 11:43:00,
2013-04-08 07:53:00,45.0,45.0,-100.00,East,94,0.0,0.0,100,0.00,,,0.00,3.000000,,2013-04-08 11:53:00,
2013-04-08 08:03:00,45.0,45.0,-100.00,East,94,0.0,0.0,100,0.00,,,0.00,3.000000,,2013-04-08 12:03:00,
2013-04-08 08:12:00,45.0,45.0,-100.00,East,94,0.0,0.0,100,0.00,,,0.00,3.000000,,2013-04-08 12:12:00,
2013-04-08 08:53:00,48.0,48.0,-100.00,NW,305,0.0,0.0,100,0.00,,,0.00,34.000000,,2013-04-08 12:53:00,
2013-04-08 09:03:00,48.0,48.0,-100.00,NW,305,0.0,0.0,100,0.00,,,0.00,34.000000,,2013-04-08 13:03:00,
2013-04-08 09:12:00,48.0,48.0,-100.00,NW,305,0.0,0.0,100,0.00,,,0.00,34.000000,,2013-04-08 13:12:00,
2013-04-08 09:22:00,48.0,48.0,-100.00,NW,305,0.0,0.0,100,0.00,,,0.00,34.000000,,2013-04-08 13:22:00,
2013-04-08 09:43:00,56.0,54.0,-100.00,NNE,18,1.0,4.0,92,0.00,,,0.00,165.000000,,2013-04-08 13:43:00,
2013-04-08 09:53:00,56.0,54.0,-100.00,NNE,18,1.0,4.0,92,0.00,,,0.00,165.000000,,2013-04-08 13:53:00,
2013-04-08 10:03:00,56.0,54.0,-100.00,NNE,18,1.0,4.0,92,0.00,,,0.00,165.000000,,2013-04-08 14:03:00,
2013-04-08 10:12:00,56.0,54.0,-100.00,NNE,18,1.0,4.0,92,0.00,,,0.00,165.000000,,2013-04-08 14:12:00,
2013-04-08 10:22:00,56.0,54.0,-100.00,NNE,18,1.0,4.0,92,0.00,,,0.00,165.000000,,2013-04-08 14:22:00,
2013-04-08 10:43:00,62.0,56.0,-100.00,SE,139,2.0,6.0,81,0.00,,,0.00,179.000000,,2013-04-08 14:43:00,
2013-04-08 10:53:00,62.0,56.0,-100.00,SE,139,2.0,6.0,81,0.00,,,0.00,179.000000,,2013-04-08 14:53:00,
2013-04-08 11:02:00,62.0,56.0,-100.00,SE,139,2.0,6.0,81,0.00,,,0.00,179.000000,,2013-04-08 15:02:00,
2013-04-08 11:12:00,62.0,56.0,-100.00,SE,139,2.0,6.0,81,0.00,,,0.00,179.000000,,2013-04-08 15:12:00,
2013-04-08 11:22:00,62.0,56.0,-100.00,SE,139,2.0,6.0,81,0.00,,,0.00,179.000000,,2013-04-08 15:22:00,
2013-04-08 11:23:00,71.0,58.0,-100.00,NNE,18,2.0,6.0,63,0.00,,,0.00,340.000000,,2013-04-08 15:23:00,
2013-04-08 11:43:00,71.0,58.0,-100.00,NNE,18,2.0,6.0,63,0.00,,,0.00,340.000000,,2013-04-08 15:43:00,
2013-04-08 11:53:00,71.0,58.0,-100.00,NNE,18,2.0,6.0,63,0.00,,,0.00,340.000000,,2013-04-08 15:53:00,
2013-04-08 12:03:00,71.0,58.0,-100.00,NNE,18,2.0,6.0,63,0.00,,,0.00,340.000000,,2013-04-08 16:03:00,
2013-04-08 12:13:00,71.0,58.0,-100.00,NNE,18,2.0,6.0,63,0.00,,,0.00,340.000000,,2013-04-08 16:13:00,
2013-04-08 12:23:00,74.0,53.0,-100.00,NNW,344,3.0,6.0,48,0.00,,,0.00,350.000000,,2013-04-08 16:23:00,
2013-04-08 12:54:00,74.0,53.0,-100.00,NNW,344,3.0,6.0,48,0.00,,,0.00,350.000000,,2013-04-08 16:54:00,
2013-04-08 13:03:00,74.0,53.0,-100.00,NNW,344,3.0,6.0,48,0.00,,,0.00,350.000000,,2013-04-08 17:03:00,
2013-04-08 13:12:00,74.0,53.0,-100.00,NNW,344,3.0,6.0,48,0.00,,,0.00,350.000000,,2013-04-08 17:12:00,
2013-04-08 13:23:00,71.0,51.0,-100.00,North,352,3.0,10.0,50,0.00,,,0.00,279.000000,,2013-04-08 17:23:00,
2013-04-08 13:45:00,71.0,51.0,-100.00,North,352,3.0,10.0,50,0.00,,,0.00,279.000000,,2013-04-08 17:45:00,
2013-04-08 13:53:00,71.0,51.0,-100.00,North,352,3.0,10.0,50,0.00,,,0.00,279.000000,,2013-04-08 17:53:00,
2013-04-08 14:02:00,71.0,51.0,-100.00,North,352,3.0,10.0,50,0.00,,,0.00,279.000000,,2013-04-08 18:02:00,
2013-04-08 14:12:00,71.0,51.0,-100.00,North,352,3.0,10.0,50,0.00,,,0.00,279.000000,,2013-04-08 18:12:00,
2013-04-08 14:23:00,77.0,53.0,-100.00,NNE,33,3.0,9.0,43,0.00,,,0.00,564.000000,,2013-04-08 18:23:00,
2013-04-08 14:43:00,77.0,53.0,-100.00,NNE,33,3.0,9.0,43,0.00,,,0.00,564.000000,,2013-04-08 18:43:00,
2013-04-08 14:53:00,77.0,53.0,-100.00,NNE,33,3.0,9.0,43,0.00,,,0.00,564.000000,,2013-04-08 18:53:00,
2013-04-08 15:03:00,77.0,53.0,-100.00,NNE,33,3.0,9.0,43,0.00,,,0.00,564.000000,,2013-04-08 19:03:00,
2013-04-08 15:12:00,77.0,53.0,-100.00,NNE,33,3.0,9.0,43,0.00,,,0.00,564.000000,,2013-04-08 19:12:00,
2013-04-08 15:23:00,71.0,50.0,-100.00,ENE,66,3.0,9.0,47,0.00,,,0.00,215.000000,,2013-04-08 19:23:00,
2013-04-08 15:43:00,71.0,50.0,-100.00,ENE,66,3.0,9.0,47,0.00,,,0.00,215.000000,,2013-04-08 19:43:00,
2013-04-08 15:53:00,71.0,50.0,-100.00,ENE,66,3.0,9.0,47,0.00,,,0.00,215.000000,,2013-04-08 19:53:00,
2013-04-08 16:02:00,71.0,50.0,-100.00,ENE,66,3.0,9.0,47,0.00,,,0.00,215.000000,,2013-04-08 20:02:00,
2013-04-08 16:12:00,71.0,50.0,-100.00,ENE,66,3.0,9.0,47,0.00,,,0.00,215.000000,,2013-04-08 20:12:00,
2013-04-08 16:43:00,69.0,51.0,-100.00,North,4,1.0,7.0,52,0.00,,,0.00,65.000000,,2013-04-08 20:43:00,
2013-04-08 16:52:00,69.0,51.0,-100.00,North,4,1.0,7.0,52,0.00,,,0.00,65.000000,,2013-04-08 20:52:00,
2013-04-08 17:02:00,69.0,51.0,-100.00,North,4,1.0,7.0,52,0.00,,,0.00,65.000000,,2013-04-08 21:02:00,
2013-04-08 17:12:00,69.0,51.0,-100.00,North,4,1.0,7.0,52,0.00,,,0.00,65.000000,,2013-04-08 21:12:00,
2013-04-08 17:22:00,69.0,51.0,-100.00,North,4,1.0,7.0,52,0.00,,,0.00,65.000000,,2013-04-08 21:22:00,
2013-04-08 17:23:00,71.0,54.0,-100.00,NW,309,1.0,3.0,56,0.00,,,0.00,108.000000,,2013-04-08 21:23:00,
2013-04-08 17:43:00,71.0,54.0,-100.00,NW,309,1.0,3.0,56,0.00,,,0.00,108.000000,,2013-04-08 21:43:00,
2013-04-08 17:53:00,71.0,54.0,-100.00,NW,309,1.0,3.0,56,0.00,,,0.00,108.000000,,2013-04-08 21:53:00,
2013-04-08 18:03:00,71.0,54.0,-100.00,NW,309,1.0,3.0,56,0.00,,,0.00,108.000000,,2013-04-08 22:03:00,
2013-04-08 18:13:00,71.0,54.0,-100.00,NW,309,1.0,3.0,56,0.00,,,0.00,108.000000,,2013-04-08 22:13:00,
2013-04-08 18:44:00,71.0,54.0,-100.00,NNE,30,2.0,7.0,54,0.00,,,0.00,101.000000,,2013-04-08 22:44:00,
2013-04-08 18:53:00,71.0,54.0,-100.00,NNE,30,2.0,7.0,54,0.00,,,0.00,101.000000,,2013-04-08 22:53:00,
2013-04-08 19:03:00,71.0,54.0,-100.00,NNE,30,2.0,7.0,54,0.00,,,0.00,101.000000,,2013-04-08 23:03:00,
2013-04-08 19:13:00,71.0,54.0,-100.00,NNE,30,2.0,7.0,54,0.00,,,0.00,101.000000,,2013-04-08 23:13:00,
2013-04-08 19:22:00,71.0,54.0,-100.00,NNE,30,2.0,7.0,54,0.00,,,0.00,101.000000,,2013-04-08 23:22:00,
2013-04-08 19:43:00,69.0,52.0,-100.00,East,93,1.0,7.0,54,0.00,,,0.00,86.000000,,2013-04-08 23:43:00,
2013-04-08 19:52:00,69.0,52.0,-100.00,East,93,1.0,7.0,54,0.00,,,0.00,86.000000,,2013-04-08 23:52:00,
2013-04-08 20:02:00,69.0,52.0,-100.00,East,93,1.0,7.0,54,0.00,,,0.00,86.000000,,2013-04-09 00:02:00,
2013-04-08 20:13:00,69.0,52.0,-100.00,East,93,1.0,7.0,54,0.00,,,0.00,86.000000,,2013-04-09 00:13:00,
2013-04-08 20:22:00,69.0,52.0,-100.00,East,93,1.0,7.0,54,0.00,,,0.00,86.000000,,2013-04-09 00:22:00,
2013-04-08 20:42:00,66.0,51.0,-100.00,SE,130,1.0,6.0,58,0.00,,,0.00,16.000000,,2013-04-09 00:42:00,
2013-04-08 20:52:00,66.0,51.0,-100.00,SE,130,1.0,6.0,58,0.00,,,0.00,16.000000,,2013-04-09 00:52:00,
2013-04-08 21:03:00,66.0,51.0,-100.00,SE,130,1.0,6.0,58,0.00,,,0.00,16.000000,,2013-04-09 01:03:00,
2013-04-08 21:12:00,66.0,51.0,-100.00,SE,130,1.0,6.0,58,0.00,,,0.00,16.000000,,2013-04-09 01:12:00,
2013-04-08 21:22:00,66.0,51.0,-100.00,SE,130,1.0,6.0,58,0.00,,,0.00,16.000000,,2013-04-09 01:22:00,
2013-04-08 21:42:00,64.0,52.0,-100.00,ENE,70,0.0,8.0,66,0.00,,,0.00,0.000000,,2013-04-09 01:42:00,
2013-04-08 21:53:00,64.0,52.0,-100.00,ENE,70,0.0,8.0,66,0.00,,,0.00,0.000000,,2013-04-09 01:53:00,
2013-04-08 22:02:00,64.0,52.0,-100.00,ENE,70,0.0,8.0,66,0.00,,,0.00,0.000000,,2013-04-09 02:02:00,
2013-04-08 22:13:00,64.0,52.0,-100.00,ENE,70,0.0,8.0,66,0.00,,,0.00,0.000000,,2013-04-09 02:13:00,
2013-04-08 22:22:00,64.0,52.0,-100.00,ENE,70,0.0,8.0,66,0.00,,,0.00,0.000000,,2013-04-09 02:22:00,
2013-04-08 22:44:00,64.0,54.0,-100.00,SE,136,1.0,4.0,71,0.00,,,0.00,0.000000,,2013-04-09 02:44:00,
2013-04-08 22:52:00,64.0,54.0,-100.00,SE,136,1.0,4.0,71,0.00,,,0.00,0.000000,,2013-04-09 02:52:00,
2013-04-08 23:02:00,64.0,54.0,-100.00,SE,136,1.0,4.0,71,0.00,,,0.00,0.000000,,2013-04-09 03:02:00,
2013-04-08 23:12:00,64.0,54.0,-100.00,SE,136,1.0,4.0,71,0.00,,,0.00,0.000000,,2013-04-09 03:12:00,
2013-04-08 23:22:00,64.0,54.0,-100.00,SE,136,1.0,4.0,71,0.00,,,0.00,0.000000,,2013-04-09 03:22:00,
2013-04-08 23:23:00,61.0,53.0,-100.00,NW,320,1.0,3.0,76,0.00,,,0.00,0.000000,,2013-04-09 03:23:00,
2013-04-08 23:43:00,61.0,53.0,-100.00,NW,320,1.0,3.0,76,0.00,,,0.00,0.000000,,2013-04-09 03:43:00,
2013-04-08 23:53:00,61.0,53.0,-100.00,NW,320,1.0,3.0,76,0.00,,,0.00,0.000000,,2013-04-09 03:53:00,